Starlink 2426

operational
NORAD ID: 47836 Int'l Des: 2021-018 Owner: SPXS Country: US Constellation: starlink
LEOCIRCULARSTARLINK_TYPE

关于 Starlink 2426

正在加载描述...

实时位置

正在加载3D地球...

即将过境

高度历史

Altitude vs Time

uPlot chart will show altitude changes over time

两行轨道根数

1 47836U 21018BB 25306.16362718 -.00000716 00000-0 -29227-4 0 9992
2 47836 53.0533 104.1921 0000973 98.8648 261.2451 15.06392688257372
Epoch: Nov 2, 2025 • Age: 19 hours

当前状态

高度 564.3 km
速度 7.58 km/s
星下点 -47.83°S, 21.52°E
发射日期 Mar 11, 2021
运行时间 4.6 years
类型 internet

技术详情

分类 Payload
质量 260.00 kg
干质量 248.00 kg
总质量 260.00 kg
长度 0.20 m
直径 2.80 m
跨度 9.00 m
形状 Box + pan
制造商 SPXS
平台类型 Starlink
阶段状态 In Orbit
所有者/国家 SPXS/US

大型星座

Loading constellations...